N5ZKK Weather Reports


Display with metric or nautical units.
time (UTC)temp
F
wind
direction
speed
MPH
gust
MPH
rain 1hr
in
rain 24hr
in
rain mn
in
humidity
%
barometer
mb
20260903161525 95 124 3.0 5.0 0.00 0.00 0.00 55 1017.4
20260903160757 92 153 4.0 8.0 0.00 0.00 0.00 57 1013.4
20260903160535 92 153 5.0 8.0 0.00 0.00 0.00 57 1017.5
20260903155517 92 148 3.0 5.0 0.00 0.00 0.00 61 1017.5
20260903154519 91 137 5.0 8.0 0.00 0.00 0.00 64 1017.4
20260903153757 90 106 4.0 7.0 0.00 0.00 0.00 65 1013.6
20260903153521 90 106 4.0 8.0 0.00 0.00 0.00 65 1017.4
20260903152524 89 97 4.0 6.0 0.00 0.00 0.00 68 1017.4
20260903151526 88 109 6.0 7.0 0.00 0.00 0.00 71 1017.5
20260903150757 86 140 4.0 6.0 0.00 0.00 0.00 73 1014.0
20260903150528 86 141 4.0 7.0 0.00 0.00 0.00 73 1017.5
20260903145551 86 119 4.0 5.0 0.00 0.00 0.00 74 1017.6
20260903144533 86 132 3.0 7.0 0.00 0.00 0.00 75 1017.6
20260903143757 84 128 4.0 6.0 0.00 0.00 0.00 78 1014.4
20260903143517 84 129 5.0 7.0 0.00 0.00 0.00 78 1017.6
20260903142519 83 122 4.0 6.0 0.00 0.00 0.00 80 1017.7
20260903141521 83 129 5.0 8.0 0.00 0.00 0.00 82 1017.6
20260903140757 80 129 5.0 7.0 0.00 0.00 0.00 86 1014.9
20260903140524 80 129 5.0 8.0 0.00 0.00 0.00 87 1017.7
20260903135526 80 89 3.0 7.0 0.00 0.00 0.00 88 1017.8
20260903134528 79 115 2.0 5.0 0.00 0.00 0.00 91 1017.8
20260903133757 78 115 2.0 3.0 0.00 0.00 0.00 92 1015.2
20260903133605 78 116 2.0 4.0 0.00 0.00 0.00 92 1017.8
20260903132520 78 106 3.0 5.0 0.00 0.00 0.00 94 1017.7
20260903131517 77 98 2.0 5.0 0.00 0.00 0.00 95 1017.7
20260903130757 76 104 1.0 5.0 0.00 0.00 0.00 95 1015.1
20260903130519 77 104 2.0 5.0 0.00 0.00 0.00 95 1017.5
20260903125521 77 101 0.0 2.0 0.00 0.00 0.00 95 1017.5
20260903124543 77 219 1.0 4.0 0.00 0.00 0.00 95 1017.3
20260903123757 76 110 1.0 4.0 0.00 0.00 0.00 94 1014.9
20260903123527 77 111 1.0 4.0 0.00 0.00 0.00 94 1017.3
20260903122528 77 114 1.0 3.0 0.00 0.00 0.00 94 1017.2
20260903121757 76 137 2.0 4.0 0.00 0.00 0.00 94 1014.7
20260903121530 77 138 2.0 5.0 0.00 0.00 0.00 94 1017.1
20260903120532 77 106 2.0 5.0 0.00 0.00 0.00 94 1017.0
20260903115757 76 103 1.0 4.0 0.00 0.00 0.00 94 1014.6
20260903115531 77 104 2.0 4.0 0.00 0.00 0.00 94 1017.0
20260903114757 76 112 3.0 6.0 0.00 0.00 0.00 94 1014.6
20260903114532 77 113 3.0 6.0 0.00 0.00 0.00 94 1017.0
20260903113757 76 120 3.0 6.0 0.00 0.00 0.00 94 1014.6
20260903113515 77 121 3.0 7.0 0.00 0.00 0.00 94 1017.0
20260903113257 76 117 4.0 6.0 0.00 0.00 0.00 94 1014.7
20260903112517 77 133 2.0 4.0 0.00 0.00 0.00 94 1017.1
20260903111816 76 113 3.0 5.0 0.00 0.00 0.00 94 1014.6
20260903111539 77 113 4.0 6.0 0.00 0.00 0.00 94 1017.0
20260903110521 76 118 2.0 4.0 0.00 0.00 0.00 94 1016.9
20260903105816 76 209 0.0 2.0 0.00 0.00 0.00 93 1014.6
20260903105524 76 210 0.0 2.0 0.00 0.00 0.00 93 1017.0
20260903104520 76 92 3.0 5.0 0.00 0.00 0.00 93 1016.8
20260903103816 76 87 2.0 5.0 0.00 0.00 0.00 92 1014.4
20260903103516 77 88 3.0 6.0 0.00 0.00 0.00 93 1016.8
20260903102816 76 96 4.0 7.0 0.00 0.00 0.00 92 1014.4
20260903102610 77 96 4.0 8.0 0.00 0.00 0.00 92 1016.8
20260903101816 76 108 3.0 7.0 0.00 0.00 0.00 90 1014.2
20260903101532 77 109 4.0 7.0 0.00 0.00 0.00 91 1016.6
20260903100517 77 125 3.0 6.0 0.00 0.00 0.00 90 1016.6
20260903100348 77 107 3.0 4.0 0.00 0.00 0.00 89 1014.2
20260903095539 77 116 3.0 6.0 0.00 0.00 0.00 89 1016.8
20260903094522 78 108 4.0 7.0 0.00 0.00 0.00 88 1016.8
20260903093524 78 124 4.0 6.0 0.00 0.00 0.00 88 1016.8
20260903093348 77 102 3.0 7.0 0.00 0.00 0.00 87 1014.4
20260903092546 78 103 4.0 7.0 0.00 0.00 0.00 87 1016.9
20260903091529 78 119 5.0 8.0 0.00 0.00 0.00 86 1016.8
20260903090551 78 123 4.0 6.0 0.00 0.00 0.00 85 1016.8
20260903090348 78 135 4.0 8.0 0.00 0.00 0.00 84 1014.2
20260903085533 79 123 4.0 7.0 0.00 0.00 0.00 84 1016.6
20260903084517 79 119 3.0 6.0 0.00 0.00 0.00 84 1016.8
20260903083519 79 96 3.0 8.0 0.00 0.00 0.00 84 1016.9
20260903083348 79 114 3.0 7.0 0.00 0.00 0.00 84 1014.2
20260903082521 79 115 4.0 8.0 0.00 0.00 0.00 84 1016.9
20260903081523 79 108 4.0 6.0 0.00 0.00 0.00 83 1016.9
20260903080520 80 120 4.0 6.0 0.00 0.00 0.00 82 1016.9
20260903080348 79 111 2.0 4.0 0.00 0.00 0.00 81 1014.2
20260903075516 80 119 3.0 5.0 0.00 0.00 0.00 81 1017.0
20260903074530 80 87 3.0 7.0 0.00 0.00 0.00 80 1016.8
20260903073532 80 141 4.0 8.0 0.00 0.00 0.00 80 1016.9
20260903073348 80 120 5.0 7.0 0.00 0.00 0.00 80 1014.3
20260903072517 80 132 5.0 10.0 0.00 0.00 0.00 80 1017.1
20260903071518 80 125 4.0 7.0 0.00 0.00 0.00 80 1017.2
20260903070520 80 88 3.0 5.0 0.00 0.00 0.00 79 1017.2
20260903070348 80 96 3.0 6.0 0.00 0.00 0.00 79 1014.3
20260903065525 81 133 3.0 6.0 0.00 0.00 0.00 79 1017.2
20260903064525 81 137 2.0 6.0 0.00 0.00 0.00 77 1017.2
20260903063607 81 121 4.0 6.0 0.00 0.00 0.00 76 1017.1
20260903063348 81 77 4.0 9.0 0.00 0.00 0.00 75 1014.2
20260903062529 81 126 3.0 6.0 0.00 0.00 0.00 75 1017.1
20260903061532 81 106 4.0 8.0 0.00 0.00 0.00 73 1017.1
20260903060516 80 100 2.0 5.0 0.00 0.00 0.00 73 1017.0
20260903060348 79 119 1.0 3.0 0.00 0.00 0.00 72 1014.2
20260903055538 80 127 2.0 4.0 0.00 0.00 0.00 71 1017.1
20260903054520 79 116 2.0 7.0 0.00 0.00 0.00 71 1017.1
20260903053523 77 119 2.0 5.0 0.00 0.00 0.00 73 1017.1
20260903053348 76 157 1.0 2.0 0.00 0.00 0.00 73 1014.7
20260903052519 77 120 1.0 3.0 0.00 0.00 0.00 75 1017.1
20260903051515 76 0.0 0.0 0.00 0.00 0.00 78 1016.9
20260903050530 77 0.0 0.0 0.00 0.00 0.00 77 1016.9
20260903050348 76 0 0.0 0.0 0.00 0.00 0.00 77 1014.5
20260903045532 77 158 0.0 2.0 0.00 0.00 0.00 77 1016.6
20260903044516 77 0.0 0.0 0.00 0.00 0.00 77 1016.6
20260903043519 77 0.0 0.0 0.00 0.00 0.00 76 1016.6
20260903043348 77 0 0.0 0.0 0.00 0.00 0.00 76 1014.1
20260903042521 78 0.0 0.0 0.00 0.00 0.00 75 1016.6
20260903041523 78 0.0 0.0 0.00 0.00 0.00 74 1016.6
20260903040525 79 0.0 0.0 0.00 0.00 0.00 72 1016.6
20260903040348 79 0 0.0 0.0 0.00 0.00 0.00 71 1013.9
20260903035527 79 0.0 0.0 0.00 0.00 0.00 70 1016.4
20260903034530 80 315 0.0 2.0 0.00 0.00 0.00 69 1016.4
20260903033532 80 0.0 0.0 0.00 0.00 0.00 67 1016.3
20260903033348 80 0 0.0 0.0 0.00 0.00 0.00 65 1013.4
20260903032536 81 0.0 0.0 0.00 0.00 0.00 66 1016.2
20260903031539 82 0.0 0.0 0.00 0.00 0.00 64 1016.1
20260903030521 83 0.0 0.0 0.00 0.00 0.00 62 1016.0
20260903030348 82 0 0.0 0.0 0.00 0.00 0.00 61 1013.0
20260903025523 83 0.0 0.0 0.00 0.00 0.00 61 1015.9
20260903024519 84 0.0 0.0 0.00 0.00 0.00 60 1015.7
20260903023516 85 0.0 0.0 0.00 0.00 0.00 57 1015.5
20260903023348 85 0 0.0 0.0 0.00 0.00 0.00 55 1012.0
20260903022530 86 0.0 0.0 0.00 0.00 0.00 55 1015.4
20260903021532 87 135 0.0 2.0 0.00 0.00 0.00 54 1015.2
20260903020516 87 138 1.0 2.0 0.00 0.00 0.00 53 1015.0
20260903020348 87 163 0.0 2.0 0.00 0.00 0.00 52 1011.4
20260903015518 88 143 1.0 3.0 0.00 0.00 0.00 52 1014.9
20260903014520 89 113 0.0 3.0 0.00 0.00 0.00 51 1014.9
20260903013522 90 135 0.0 2.0 0.00 0.00 0.00 49 1014.9
20260903013348 90 132 1.0 3.0 0.00 0.00 0.00 48 1011.0
20260903012545 91 114 1.0 3.0 0.00 0.00 0.00 48 1014.8
20260903011547 91 101 4.0 8.0 0.00 0.00 0.00 46 1014.5
20260903010529 92 162 1.0 4.0 0.00 0.00 0.00 45 1014.5
20260903010348 92 155 0.0 2.0 0.00 0.00 0.00 44 1010.5
20260903005531 93 170 1.0 3.0 0.00 0.00 0.00 44 1014.5
20260903004533 94 158 0.0 1.0 0.00 0.00 0.00 41 1014.5
20260903003538 96 116 2.0 4.0 0.00 0.00 0.00 39 1014.5
20260903003348 96 133 1.0 3.0 0.00 0.00 0.00 39 1010.0
20260903002519 97 112 1.0 4.0 0.00 0.00 0.00 39 1014.5
20260903001519 96 126 3.0 5.0 0.00 0.00 0.00 39 1014.7
20260903000515 97 135 4.0 6.0 0.00 0.00 0.00 38 1014.8
20260903000348 97 116 3.0 5.0 0.00 0.00 0.00 38 1010.2
20260902235523 97 111 2.0 6.0 0.00 0.00 0.00 38 1014.8
20260902234525 98 113 3.0 5.0 0.00 0.00 0.00 37 1014.9
20260902233527 99 86 3.0 5.0 0.00 0.00 0.00 36 1014.9
20260902233348 99 121 2.0 5.0 0.00 0.00 0.00 35 1010.1
20260902232530 100 79 3.0 5.0 0.00 0.00 0.00 36 1014.9
20260902231531 100 147 2.0 4.0 0.00 0.00 0.00 35 1014.8
20260902230515 100 91 3.0 5.0 0.00 0.00 0.00 36 1014.8
20260902230348 100 131 4.0 6.0 0.00 0.00 0.00 35 1009.9
20260902225518 100 193 3.0 5.0 0.00 0.00 0.00 35 1014.8
20260902224519 100 154 3.0 5.0 0.00 0.00 0.00 34 1014.8
20260902223522 101 122 5.0 10.0 0.00 0.00 0.00 35 1014.8
20260902223348 100 160 4.0 5.0 0.00 0.00 0.00 35 1010.1
20260902222523 102 155 3.0 5.0 0.00 0.00 0.00 34 1015.0
20260902221525 102 136 3.0 5.0 0.00 0.00 0.00 33 1015.1
20260902220524 102 197 3.0 4.0 0.00 0.00 0.00 33 1015.1
20260902220348 102 214 4.0 6.0 0.00 0.00 0.00 32 1009.9
20260902215520 103 153 4.0 7.0 0.00 0.00 0.00 33 1015.2
20260902214516 103 64 2.0 6.0 0.00 0.00 0.00 32 1015.3
20260902213525 103 208 3.0 6.0 0.00 0.00 0.00 32 1015.3
20260902213348 102 97 3.0 4.0 0.00 0.00 0.00 32 1010.2
20260902212528 102 76 3.0 6.0 0.00 0.00 0.00 34 1015.3
20260902211528 104 34 3.0 5.0 0.00 0.00 0.00 31 1015.4
20260902210530 102 83 2.0 4.0 0.00 0.00 0.00 33 1015.6
20260902210348 102 158 2.0 4.0 0.00 0.00 0.00 33 1010.6
20260902205534 103 17 3.0 5.0 0.00 0.00 0.00 33 1015.9
20260902204517 104 36 3.0 4.0 0.00 0.00 0.00 33 1016.0
20260902203519 103 130 4.0 7.0 0.00 0.00 0.00 34 1016.1
20260902203348 102 22 2.0 6.0 0.00 0.00 0.00 35 1011.2
20260902202601 102 169 4.0 7.0 0.00 0.00 0.00 36 1016.2
20260902201523 106 88 4.0 6.0 0.00 0.00 0.00 33 1016.4
20260902200525 105 76 3.0 6.0 0.00 0.00 0.00 32 1016.8
20260902200348 102 256 3.0 4.0 0.00 0.00 0.00 34 1011.8
20260902195546 103 54 3.0 5.0 0.00 0.00 0.00 35 1016.9
20260902194528 103 36 3.0 6.0 0.00 0.00 0.00 36 1017.0
20260902193524 103 10 3.0 5.0 0.00 0.00 0.00 35 1017.1
20260902193348 102 14 3.0 5.0 0.00 0.00 0.00 35 1012.1
20260902192520 102 86 3.0 5.0 0.00 0.00 0.00 36 1017.2
20260902191518 100 95 3.0 5.0 0.00 0.00 0.00 38 1017.4
20260902190539 102 44 4.0 8.0 0.00 0.00 0.00 37 1017.7
20260902190348 101 140 4.0 8.0 0.00 0.00 0.00 37 1012.7
20260902185602 101 151 3.0 6.0 0.00 0.00 0.00 37 1017.7
20260902184523 103 17 3.0 6.0 0.00 0.00 0.00 37 1017.9
20260902183525 102 125 3.0 6.0 0.00 0.00 0.00 37 1018.0
20260902183348 102 48 3.0 4.0 0.00 0.00 0.00 37 1013.1
20260902182528 101 148 3.0 5.0 0.00 0.00 0.00 38 1018.1
20260902181530 101 282 2.0 4.0 0.00 0.00 0.00 38 1018.5
20260902181348 101 269 3.0 5.0 0.00 0.00 0.00 36 1013.7
20260902180532 100 275 4.0 5.0 0.00 0.00 0.00 38 1018.7
20260902175516 98 144 5.0 8.0 0.00 0.00 0.00 41 1018.7
20260902175348 98 136 4.0 6.0 0.00 0.00 0.00 40 1014.1
20260902174538 99 145 4.0 6.0 0.00 0.00 0.00 41 1018.9
20260902174348 97 135 3.0 6.0 0.00 0.00 0.00 42 1014.4
20260902173521 99 193 4.0 6.0 0.00 0.00 0.00 41 1019.0
20260902173348 98 118 4.0 6.0 0.00 0.00 0.00 42 1014.6
20260902172848 97 104 5.0 7.0 0.00 0.00 0.00 42 1014.6
20260902172524 98 105 5.0 7.0 0.00 0.00 0.00 42 1019.2